Temperature
19 18 18 18 18 17 17 17 17 17 17 17 17 16 16 16 16 16 16 16 16 15 15 15 15 15 15 15 15 15 15 15 14 14 14 14 14 14 14 14 14 14 14
18 18 18 18 18 17 17 17 17 17 17 16 16 16 16 16 16 16 16 15 15 15 15 15 15 15 15 15 15 14 14 14 14 14 14 14 14 13 14 13 13 13 13
18 18 18 18 17 17 17 17 17 16 16 16 16 16 15 15 15 15 15 15 15 15 14 14 14 14 14 14 14 14 14 14 14 14 13 13 13 13 13 13 13 12 12
18 18 18 17 17 17 17 16 16 16 16 16 15 15 15 15 15 15 15 15 14 14 14 14 14 14 14 14 14 14 14 13 13 13 13 13 12 12 12 12 12 12 12
18 18 17 17 17 16 16 16 16 16 15 15 15 15 15 15 14 14 14 14 14 14 14 13 13 13 13 13 13 13 13 13 13 13 12 12 12 12 12 11 11 11 11
18 18 17 17 16 16 16 16 15 15 15 15 15 14 14 14 14 14 14 14 14 13 13 13 13 13 13 13 13 12 12 12 12 12 12 12 11 11 11 11 11 11 10
18 17 17 16 16 16 15 15 15 15 14 14 14 14 14 14 13 13 13 13 13 13 13 12 12 12 12 12 12 12 12 12 12 12 12 11 11 11 11 11 10 10 10
17 17 16 16 16 15 15 15 15 14 14 14 13 13 13 13 13 13 12 12 12 12 12 12 12 12 11 12 12 12 11 11 11 11 11 11 11 10 10 10 10 10 10
17 16 16 16 15 15 15 15 14 14 14 13 13 13 13 12 12 12 12 12 12 12 11 11 11 11 11 11 11 11 11 11 10 10 10 10 10 10 10 10 9 9 9
17 16 16 16 15 15 14 14 14 14 13 13 13 12 12 12 11 11 11 11 11 11 11 11 10 10 10 10 11 11 10 10 10 10 10 10 9 9 9 9 9 9 9
17 16 15 15 15 14 14 14 13 13 13 13 12 12 11 11 11 11 11 11 11 11 10 10 10 10 10 10 10 10 9 9 9 9 9 9 9 9 9 8 8 8 8
16 16 15 15 14 14 14 13 13 13 12 12 12 11 11 11 11 11 10 10 10 10 10 10 9 9 9 9 9 9 9 9 9 9 9 8 8 8 8 8 8 8 8
16 15 15 15 14 14 13 13 13 12 12 12 11 11 11 11 10 10 10 10 10 10 10 9 9 9 9 9 9 9 9 9 8 8 8 8 8 8 7 7 7 7 7
15 15 15 14 14 13 13 13 12 12 12 11 11 11 11 10 10 10 10 10 9 9 9 9 9 9 9 9 8 8 8 8 8 8 7 7 7 7 7 7 7 7 7
15 15 14 14 13 13 13 12 12 12 11 11 11 11 10 10 10 10 9 9 9 9 9 9 9 9 8 8 8 8 8 8 7 7 7 7 7 7 7 7 7 7 6
15 14 14 13 13 13 12 12 11 11 11 11 10 10 10 10 10 9 9 9 9 9 9 9 8 8 8 8 8 7 7 7 7 7 7 7 7 7 6 6 6 6 6
14 14 13 13 12 12 12 12 11 11 10 10 10 10 9 9 9 9 9 9 9 9 9 8 8 8 8 8 7 7 7 7 7 7 7 6 6 6 6 6 6 6 6
14 13 13 13 12 12 12 11 11 11 10 10 10 9 9 9 9 9 9 9 9 8 8 8 8 8 7 7 7 7 7 7 7 6 6 6 6 6 6 6 6 6 6
13 13 13 12 12 11 11 11 11 10 10 10 10 9 9 9 9 9 9 9 8 8 8 8 8 7 7 7 7 7 7 7 6 6 6 6 6 6 6 6 6 6 6
13 13 12 12 11 11 11 11 10 10 10 10 9 9 9 9 9 9 8 8 8 8 8 8 7 7 7 7 7 7 6 6 6 6 6 6 6 6 6 5 5 5 5
12 12 12 11 11 11 11 10 10 10 10 9 9 9 9 9 9 9 8 8 8 8 7 7 7 7 7 7 6 6 6 6 6 6 6 6 6 5 5 5 5 5 5
12 12 11 11 11 11 10 10 10 10 10 9 9 9 9 9 8 8 8 8 8 7 7 7 7 7 7 6 6 6 6 6 6 6 6 5 5 5 5 5 5 5 5
12 11 11 11 11 11 10 10 10 10 9 9 9 9 9 8 8 8 8 8 8 7 7 7 7 7 6 6 6 6 6 6 6 6 5 5 5 5 5 5 5 5 4
11 11 11 11 10 10 10 10 10 9 9 9 9 9 9 9 8 8 8 8 8 7 7 7 7 6 6 6 6 6 6 5 5 5 5 5 5 5 4 4 4 4 4
11 11 11 10 10 10 10 10 10 9 9 9 9 9 9 9 8 8 8 8 7 7 7 7 7 6 6 6 6 6 5 5 5 5 5 5 5 4 4 4 4 4 4
11 11 11 10 10 10 10 10 10 9 9 9 9 9 9 9 8 8 8 8 7 7 7 7 7 6 6 6 6 6 5 5 5 5 5 5 4 4 4 4 4 4 4
Wind_Speed
3 3 3 3 3 3 3 2 2 2 3 3 4 4 4 3 3 3 2 2 2 2 2 2 2 2 2 1 1 0 1 2 3 1 1 1 1 2 4 5 5 5 6
4 4 4 4 4 4 4 3 3 4 4 4 4 5 4 4 4 3 3 3 3 3 3 3 3 3 3 2 1 0 0 1 1 1 1 2 2 2 3 4 5 5 6
5 5 5 5 5 4 4 4 4 5 5 5 5 5 5 5 4 4 4 4 4 4 4 4 4 3 4 3 2 1 1 1 1 1 1 1 1 2 3 3 5 5 6
6 6 6 5 5 5 5 5 5 5 5 5 5 5 4 4 4 4 5 5 5 5 5 5 5 4 4 3 3 3 2 3 3 2 2 2 2 2 2 2 3 3 3
7 7 6 6 6 6 6 5 6 6 6 5 6 5 5 4 5 5 5 6 6 6 6 6 6 8 9 6 5 4 4 3 3 4 3 2 2 2 1 1 2 2 3
7 7 7 6 6 6 6 6 6 7 6 7 7 6 7 6 8 9 7 6 7 7 7 7 7 9 11 12 12 11 9 6 5 4 3 3 2 2 1 1 1 1 1
7 7 7 7 6 6 6 6 7 6 7 7 7 7 8 8 10 10 11 7 7 7 7 6 6 7 8 8 10 12 13 13 9 5 5 3 2 2 1 1 1 2 1
7 6 6 7 7 6 6 6 6 5 6 6 7 7 7 8 9 10 11 9 8 8 7 7 7 7 7 7 8 10 10 10 10 7 6 5 4 3 2 2 2 4 4
6 6 6 6 7 7 6 6 5 6 6 6 6 7 7 7 9 10 9 7 8 9 8 8 7 7 8 9 9 9 9 8 12 14 13 12 13 12 8 5 5 4 4
6 6 6 7 8 7 6 5 5 6 6 6 7 6 6 6 8 9 9 6 7 7 7 8 10 9 9 9 8 8 8 6 7 9 10 12 12 12 12 7 4 4 3
7 7 7 7 7 7 6 5 6 6 6 7 7 6 6 6 8 9 9 6 6 6 6 6 6 10 11 11 9 7 6 5 6 7 8 8 8 8 9 9 6 4 4
8 8 7 6 6 7 7 6 6 6 7 6 6 6 5 5 6 7 9 8 7 7 5 4 6 10 12 11 9 8 9 8 6 7 7 7 6 6 6 8 9 8 6
9 8 7 7 6 6 7 7 5 5 5 4 4 4 4 4 5 7 8 8 8 6 5 7 8 10 10 9 10 10 8 6 6 6 5 4 4 4 5 5 7 8 10
9 8 7 7 6 6 5 5 5 4 4 4 4 4 3 3 3 3 3 4 6 5 5 7 9 11 9 8 7 7 6 5 4 4 3 3 4 5 6 5 4 5 5
9 8 7 6 7 6 5 4 3 2 3 4 3 4 4 2 0 1 3 3 3 3 4 4 5 5 5 5 5 5 5 5 4 4 4 4 4 4 4 4 4 4 4
9 8 6 6 6 6 6 5 8 5 5 5 5 5 2 3 4 4 5 5 5 6 6 4 3 3 3 3 3 3 3 3 3 3 3 3 3 4 4 4 4 4 4
9 8 7 6 6 6 6 6 5 5 7 7 6 5 5 5 5 5 6 7 7 7 5 3 2 2 2 2 2 2 2 2 2 2 3 3 3 3 3 3 3 3 3
8 9 8 7 6 6 6 5 5 5 4 3 4 4 4 5 5 5 6 6 5 4 3 2 2 2 1 1 1 1 1 2 2 2 2 2 2 2 2 2 2 2 2
8 7 6 6 6 6 5 5 5 5 4 3 2 2 3 4 4 4 4 3 3 2 2 2 1 1 1 1 1 1 1 1 1 1 1 1 1 1 1 1 1 2 2
7 10 9 7 6 6 5 5 5 5 4 3 3 2 2 2 2 2 2 2 2 2 2 2 1 1 1 1 1 1 1 1 1 1 1 1 1 0 1 1 1 1 1
7 8 10 8 7 6 6 5 5 5 4 3 3 3 5 3 3 3 2 2 2 3 2 2 2 1 1 1 1 1 1 0 0 0 0 1 0 0 0 0 1 1 1
7 7 7 7 6 6 6 6 5 5 5 4 2 2 5 3 3 3 3 2 2 2 3 3 2 2 2 2 2 2 1 1 1 1 0 0 0 0 0 0 1 1 1
8 8 7 6 6 7 6 5 5 5 5 4 4 3 4 3 3 3 3 3 3 3 3 4 3 3 3 3 3 3 2 2 2 2 1 1 0 0 0 0 0 1 1
8 8 8 7 6 6 6 6 6 6 5 5 4 4 4 4 4 4 4 4 4 4 5 5 5 5 5 4 4 4 4 4 4 3 3 2 1 1 1 1 1 2 2
8 8 8 7 7 6 6 6 6 5 5 5 5 5 4 4 4 5 4 4 5 5 5 6 6 6 7 6 5 5 5 4 4 4 3 3 2 2 2 2 2 3 3
8 7 7 6 6 6 6 6 6 6 5 5 5 5 5 5 5 5 5 5 5 5 6 7 8 8 8 7 7 7 6 6 5 5 4 3 3 3 3 3 4 4 4
Wind_Direction
128 117 109 107 105 100 94 83 72 60 59 64 69 68 61 52 53 67 60 48 50 28 17 21 355 346 326 311 293 232 213 210 237 287 358 12 45 62 62 69 67 70 71
128 114 106 100 96 92 86 76 75 71 66 70 73 72 64 54 54 65 64 58 58 43 25 28 14 9 5 -0 20 33 206 196 182 219 355 29 46 53 64 66 64 68 71
120 114 104 95 92 88 81 76 76 79 75 72 73 70 62 55 55 60 67 67 60 50 40 36 22 23 24 23 30 35 37 77 114 134 67 28 42 63 68 65 60 57 67
121 117 111 102 95 86 77 74 74 80 80 75 71 69 67 62 57 59 65 67 64 55 48 43 38 35 36 32 40 39 59 73 84 96 83 48 39 45 71 67 58 46 50
125 118 113 105 97 89 78 73 72 74 76 73 71 64 58 60 57 59 65 69 66 60 51 44 49 54 52 52 60 58 67 76 79 77 72 56 40 39 38 42 76 64 43
127 125 116 107 98 90 84 79 77 72 70 69 65 62 59 59 57 65 75 71 68 65 57 47 49 50 54 57 62 64 67 72 77 75 70 62 37 15 23 87 97 81 49
126 127 122 114 104 96 92 85 81 76 73 70 64 64 63 55 59 69 72 75 71 62 56 51 54 50 52 59 61 59 55 54 60 77 75 53 30 355 25 66 51 62 66
123 122 121 116 111 104 97 92 87 83 79 75 67 64 64 55 64 75 77 74 71 61 56 54 57 51 54 67 71 65 56 48 49 56 62 50 43 37 55 82 96 85 73
132 131 129 126 120 113 108 104 97 91 81 74 69 66 66 55 61 73 76 74 69 58 49 49 55 58 53 71 78 74 63 49 53 60 61 58 55 55 62 76 75 84 67
149 140 133 128 124 121 119 111 100 98 93 86 72 62 65 60 60 70 74 79 73 63 51 45 50 59 60 68 77 77 70 50 48 49 48 45 47 48 49 54 68 83 75
136 125 120 120 122 122 116 110 110 105 97 88 80 63 55 55 61 65 69 79 85 77 65 52 47 57 62 64 69 72 78 78 66 62 55 47 43 42 40 42 45 56 66
129 126 123 123 126 124 119 111 110 113 105 96 88 71 51 45 57 69 72 77 86 86 76 64 61 65 65 63 64 67 71 72 69 64 57 47 41 37 32 39 49 56 57
129 128 126 120 114 122 125 124 116 113 114 109 101 90 65 48 50 62 71 77 80 84 81 77 72 68 65 61 58 60 63 65 68 65 57 43 30 26 33 40 42 53 57
135 134 133 128 122 114 114 123 128 133 131 127 122 114 94 65 51 48 61 74 75 78 75 69 68 65 62 55 51 50 52 57 68 68 60 44 38 41 38 33 36 35 46
139 138 136 132 130 121 107 96 120 125 151 151 154 147 138 126 149 117 113 97 97 103 97 71 61 57 54 49 49 46 44 48 53 53 58 56 48 46 39 34 41 47 51
145 146 146 142 138 135 125 95 63 79 90 110 134 139 127 138 133 112 104 100 100 111 98 86 80 75 73 63 55 46 42 42 44 52 57 57 54 50 45 42 47 54 55
153 154 152 150 150 148 145 140 124 75 72 80 98 122 127 131 122 114 108 96 93 104 95 97 96 92 83 75 64 58 45 32 43 60 62 55 53 50 50 45 45 46 41
150 153 153 155 155 153 153 150 147 144 130 83 59 88 115 126 124 121 120 104 82 79 99 111 114 112 102 95 83 71 53 48 56 59 58 54 53 55 50 45 43 38 29
154 155 154 153 152 150 149 147 144 142 138 128 112 89 98 107 94 95 116 116 133 131 131 129 132 134 134 137 125 95 79 64 59 63 55 48 50 59 52 44 38 29 32
157 156 155 153 153 152 153 153 152 152 153 155 161 164 153 128 117 114 128 141 148 156 162 163 162 157 156 160 155 128 100 77 58 58 43 38 49 85 67 34 25 19 6
158 159 155 155 160 161 162 164 164 165 168 173 190 189 169 160 165 171 175 178 182 183 182 177 170 171 179 178 168 150 136 108 57 360 353 355 26 59 45 44 18 0 347
159 160 164 165 165 166 166 168 169 170 173 175 183 174 168 166 174 181 191 197 201 196 186 180 182 191 199 200 194 188 196 217 247 260 275 333 17 12 6 1 6 7 0
157 159 161 161 163 162 164 168 171 173 177 182 178 176 179 189 193 196 201 203 197 191 188 187 188 194 207 213 213 211 220 235 240 235 225 220 222 234 245 310 313 319 324
158 159 160 160 160 163 168 174 177 178 182 186 186 190 194 198 202 205 206 202 195 196 196 197 204 210 211 215 223 230 237 241 236 229 224 220 224 234 233 247 270 283 287
156 158 161 163 164 168 172 177 181 186 191 194 195 197 200 202 206 207 205 202 200 204 208 209 213 219 223 226 232 238 244 241 235 228 221 224 232 236 244 255 265 273 279
157 159 160 160 163 167 171 178 184 189 194 198 199 201 204 206 209 209 206 204 207 213 217 219 222 224 228 233 238 242 243 241 239 235 225 228 234 244 252 259 272 273 278
Height
1544 1545 1546 1546 1547 1548 1548 1548 1549 1549 1549 1549 1548 1548 1548 1548 1548 1547 1546 1546 1546 1545 1545 1544 1543 1543 1542 1542 1541 1541 1541 1541 1540 1540 1541 1541 1540 1540 1540 1540 1540 1540 1540
1543 1544 1545 1546 1547 1547 1547 1547 1548 1548 1548 1548 1547 1547 1547 1546 1546 1545 1544 1544 1544 1543 1542 1542 1541 1541 1540 1539 1539 1538 1538 1538 1538 1538 1538 1538 1538 1538 1538 1538 1538 1538 1537
1543 1544 1545 1546 1546 1546 1547 1547 1547 1547 1547 1547 1547 1546 1546 1545 1545 1544 1544 1543 1542 1542 1541 1540 1539 1539 1538 1537 1537 1537 1536 1536 1536 1536 1536 1537 1537 1536 1536 1536 1536 1535 1535
1542 1544 1545 1545 1546 1546 1547 1547 1547 1547 1547 1547 1547 1546 1546 1545 1544 1544 1543 1542 1542 1541 1540 1539 1539 1538 1537 1536 1536 1535 1535 1535 1535 1535 1535 1535 1535 1535 1535 1534 1534 1534 1534
1542 1544 1545 1546 1546 1547 1547 1547 1547 1547 1547 1547 1547 1547 1546 1545 1544 1544 1543 1542 1541 1541 1540 1540 1539 1538 1537 1536 1536 1535 1535 1535 1534 1534 1534 1534 1534 1534 1534 1534 1533 1533 1533
1542 1544 1545 1546 1547 1547 1548 1548 1548 1548 1548 1548 1547 1547 1546 1545 1545 1544 1543 1542 1542 1541 1540 1540 1539 1539 1538 1537 1537 1536 1536 1536 1535 1535 1535 1534 1534 1534 1534 1534 1533 1532 1532
1542 1544 1546 1547 1547 1548 1548 1549 1548 1548 1548 1548 1548 1548 1547 1546 1545 1544 1544 1543 1542 1542 1541 1541 1540 1540 1540 1539 1538 1538 1537 1537 1537 1537 1536 1535 1535 1534 1533 1533 1532 1532 1531
1542 1544 1545 1546 1548 1548 1549 1549 1549 1549 1549 1549 1549 1548 1548 1547 1546 1546 1545 1545 1544 1543 1543 1543 1542 1541 1541 1541 1540 1540 1539 1538 1538 1537 1537 1536 1536 1535 1534 1533 1532 1531 1531
1543 1544 1545 1546 1548 1548 1549 1549 1549 1549 1549 1549 1549 1549 1549 1548 1548 1548 1547 1546 1545 1545 1545 1545 1544 1544 1543 1543 1542 1541 1541 1540 1540 1539 1539 1538 1537 1536 1535 1534 1533 1532 1532
1542 1544 1545 1546 1547 1548 1549 1550 1550 1550 1550 1550 1550 1550 1550 1550 1550 1550 1549 1549 1548 1547 1547 1547 1547 1546 1546 1545 1544 1543 1542 1542 1542 1541 1540 1539 1538 1537 1536 1536 1535 1534 1533
1542 1543 1544 1546 1547 1548 1549 1550 1550 1551 1551 1551 1551 1552 1552 1552 1552 1551 1551 1551 1550 1550 1549 1549 1549 1549 1548 1547 1546 1545 1545 1545 1544 1543 1542 1541 1541 1540 1539 1538 1537 1537 1536
1540 1542 1544 1545 1546 1547 1549 1550 1551 1551 1552 1552 1552 1552 1553 1553 1553 1553 1553 1553 1553 1552 1551 1551 1551 1551 1550 1549 1549 1548 1548 1547 1546 1546 1545 1544 1543 1542 1541 1541 1540 1539 1538
1539 1542 1543 1545 1546 1547 1548 1550 1551 1552 1552 1553 1553 1553 1554 1554 1555 1555 1555 1555 1555 1554 1554 1554 1554 1553 1553 1552 1551 1551 1550 1549 1549 1548 1547 1546 1546 1545 1544 1543 1542 1541 1541
1538 1540 1542 1544 1545 1547 1548 1550 1551 1552 1553 1553 1554 1554 1555 1555 1556 1556 1556 1556 1556 1556 1556 1556 1556 1555 1555 1554 1553 1553 1552 1552 1551 1550 1550 1549 1548 1547 1546 1545 1544 1544 1543
1537 1539 1541 1543 1545 1546 1547 1549 1551 1552 1553 1554 1554 1555 1555 1556 1556 1557 1557 1557 1558 1558 1558 1557 1557 1557 1556 1556 1555 1554 1554 1553 1553 1552 1552 1551 1550 1549 1548 1547 1546 1545 1545
1535 1538 1540 1542 1544 1545 1546 1548 1550 1551 1553 1554 1555 1555 1556 1557 1557 1558 1558 1559 1559 1559 1559 1558 1558 1558 1557 1557 1557 1556 1555 1555 1554 1554 1553 1552 1552 1551 1550 1549 1548 1547 1547
1534 1537 1539 1541 1543 1544 1546 1548 1549 1551 1552 1553 1554 1555 1556 1557 1558 1558 1559 1559 1559 1560 1559 1559 1559 1559 1558 1558 1557 1557 1556 1556 1555 1554 1554 1553 1553 1552 1551 1550 1550 1549 1548
1533 1536 1538 1539 1542 1544 1545 1547 1549 1550 1551 1552 1554 1555 1556 1557 1558 1558 1559 1559 1559 1559 1559 1559 1559 1559 1559 1558 1558 1557 1557 1556 1556 1555 1555 1554 1554 1553 1552 1551 1551 1550 1550
1532 1534 1536 1538 1540 1543 1545 1546 1548 1549 1550 1551 1553 1554 1555 1556 1557 1558 1559 1559 1559 1559 1559 1559 1559 1559 1559 1559 1558 1558 1557 1557 1556 1555 1555 1554 1554 1553 1552 1552 1551 1551 1550
1530 1532 1535 1537 1539 1542 1543 1545 1547 1548 1549 1551 1552 1553 1555 1556 1556 1557 1558 1558 1558 1559 1559 1559 1559 1559 1559 1558 1558 1557 1557 1556 1556 1555 1554 1554 1553 1552 1552 1552 1551 1551 1550
1528 1531 1533 1536 1538 1540 1542 1544 1546 1547 1549 1550 1552 1553 1554 1555 1556 1556 1557 1557 1558 1558 1558 1558 1558 1558 1558 1558 1557 1557 1556 1555 1555 1554 1554 1553 1552 1552 1551 1551 1551 1550 1550
1527 1529 1532 1534 1537 1539 1541 1543 1545 1546 1548 1549 1551 1552 1554 1554 1555 1556 1556 1557 1557 1557 1557 1557 1557 1557 1557 1557 1556 1556 1555 1554 1554 1553 1552 1552 1551 1551 1550 1550 1550 1549 1549
1525 1528 1531 1533 1535 1538 1540 1542 1544 1546 1547 1549 1550 1552 1553 1553 1554 1555 1555 1556 1556 1556 1556 1556 1556 1556 1556 1555 1555 1554 1554 1553 1552 1552 1551 1550 1550 1549 1549 1549 1548 1548 1547
1524 1526 1529 1532 1534 1536 1538 1541 1543 1544 1546 1548 1549 1550 1551 1552 1553 1554 1554 1555 1555 1555 1555 1555 1555 1555 1554 1554 1553 1552 1552 1551 1550 1550 1549 1549 1548 1548 1548 1547 1546 1546 1546
1522 1525 1528 1530 1533 1535 1537 1540 1541 1543 1545 1546 1548 1549 1550 1551 1552 1552 1553 1553 1553 1553 1553 1553 1553 1553 1552 1552 1551 1551 1550 1549 1548 1548 1547 1547 1547 1546 1546 1545 1545 1544 1543
1521 1524 1526 1529 1531 1534 1536 1538 1540 1542 1543 1545 1546 1547 1548 1549 1550 1550 1551 1551 1551 1552 1551 1552 1551 1551 1551 1550 1549 1549 1548 1547 1547 1546 1546 1545 1545 1544 1543 1543 1542 1541 1541